Weather observations for the past three days for
Grayling, Grayling Army Airfield
Imperial (Metric)
Date Time (edt) Wind (mph) Vis. (mi.) Weather Sky Cond. Temperature (ºF) Relative Humidity Wind Chill (°F) Heat Index (°F) Pressure Precipitation (in)
Air Dwpt 6 hour altimeter (in) sea level (mb) 1 hr 3 hr 6 hr
Max. Min.
14 05:55 Calm 8.00 Overcast SCT020 SCT025 BKN130 OVC160 69.8 68 94% 29.95 1014.1 0.01
14 04:55 SW 5 9.00 Light Rain BKN070 OVC100 69.1 67.3 94% 29.93 1013.4 0.05 0.05
14 03:55 Calm 10.00 Overcast FEW034 SCT041 SCT049 BKN070 OVC120 68.9 62.8 81% 29.94 1013.7
14 02:55 SE 5 10.00 Thunderstorm in Vicinity FEW032 SCT055 SCT210 67.5 61 80% 29.96 1014.4
14 01:55 Calm 10.00 Mostly Cloudy BKN048 BKN200 67.3 61.2 81.5 64.8 81% 29.99 1015.5
14 00:55 E 3 10.00 A Few Clouds FEW075 66.7 61.7 84% 30.03 1016.9
13 23:55 Calm 10.00 A Few Clouds FEW240 64.9 61 87% 30.03 1017.0
13 22:55 S 3 10.00 Fair CLR 66.6 60.8 82% 30.05 1017.6
13 21:55 SW 3 8.00 Fair CLR 68.7 61.5 78% 30.06 1018.1
13 20:55 S 3 8.00 Fair CLR 76.6 59.2 55% 78 30.06 1018.1
13 19:55 SW 8 10.00 Fair CLR 81.7 60.1 86.7 81.7 48% 82 30.06 1018.1
13 18:55 SW 6 10.00 Fair CLR 83.8 58.8 43% 84 30.07 1018.5
13 17:55 SW 6 9.00 Fair CLR 84.2 59.9 44% 84 30.09 1019.1
13 16:55 S 7 10.00 A Few Clouds FEW065 86 59.5 41% 86 30.1 1019.5
13 15:55 Calm 10.00 Fair CLR 86 60.3 42% 86 30.12 1020.1
13 14:55 W 5 10.00 Partly Cloudy SCT055 84.9 62.4 47% 86 30.13 1020.5
13 13:55 S 6 10.00 A Few Clouds FEW060 84.2 61.7 84.4 60.6 47% 85 30.14 1020.8
13 12:55 W 5 10.00 Fair CLR 83.5 61.7 48% 84 30.16 1021.5
13 11:55 SW 7 10.00 Fair CLR 81.3 60.3 49% 82 30.17 1021.8
13 10:55 W 5 10.00 Fair CLR 79.3 63.3 58% 81 30.17 1021.8
13 09:55 SW 3 10.00 Fair CLR 75.9 63.7 66% 78 30.18 1022.1
13 08:55 Calm 10.00 Fair CLR 67.5 61.7 82% 30.19 1022.6
13 07:55 Calm 10.00 Fair CLR 60.4 58.5 60.6 52.9 93% 30.17 1021.9
13 06:55 Calm 7.00 Fair CLR 54.1 53.6 98% 30.16 1021.6
13 05:55 Calm 9.00 A Few Clouds FEW000 55.2 54.9 99% 30.16 1021.5
13 04:55 Calm 7.00 Fair CLR 54.5 54 98% 30.14 1020.9
13 03:55 Calm 2.25 Fog/Mist CLR 56.5 56.1 99% 30.14 1020.9
13 02:55 Calm 9.00 Fair CLR 56.7 55.8 97% 30.16 1021.5
13 01:55 Calm 4.00 Fog/Mist CLR 59.5 59.2 78.6 58.5 99% 30.16 1021.6
13 00:55 Calm 10.00 Fair CLR 59.5 59 98% 30.16 1021.6
12 23:55 Calm 10.00 Fair CLR 61.3 60.8 98% 30.15 1021.3
12 22:55 Calm 10.00 Fair CLR 63.1 62.2 97% 30.14 1020.9
12 21:55 Calm 9.00 Fair CLR 67.1 63.3 88% 30.12 1020.2
12 20:55 Calm 9.00 Fair CLR 71.6 63.7 76% 30.11 1019.9
12 19:55 Calm 10.00 Fair CLR 78.8 64.6 84.7 77.4 62% 81 30.1 1019.4
12 18:55 W 3 10.00 A Few Clouds FEW065 82.8 56.7 41% 82 30.1 1019.5
12 17:55 W 3 10.00 A Few Clouds FEW070 83.1 56.3 40% 82 30.1 1019.5
12 16:55 Calm 10.00 A Few Clouds FEW065 82.4 57.6 43% 82 30.11 1019.8
12 15:55 Calm 10.00 Mostly Cloudy SCT060 BKN080 BKN090 82 56.7 42% 82 30.12 1020.2
12 14:55 Calm 10.00 A Few Clouds FEW065 80.8 56.1 43% 81 30.13 1020.5
12 13:55 W 3 10.00 Partly Cloudy FEW055 SCT180 SCT330 77.9 59.9 80.1 63.9 54% 79 30.14 1020.8
12 12:55 Calm 10.00 A Few Clouds FEW230 FEW260 78.6 60.6 54% 80 30.14 1020.8
12 11:55 Calm 10.00 Partly Cloudy FEW180 SCT200 73.8 61.2 65% 30.15 1021.2
12 10:55 Calm 10.00 Mostly Cloudy BKN170 73.8 60.3 63% 30.14 1020.9
12 09:55 Calm 10.00 Overcast BKN170 OVC200 68.5 63.5 84% 30.15 1021.2
12 08:55 Calm 10.00 Partly Cloudy SCT150 SCT180 65.5 62.1 89% 30.15 1021.2
12 07:55 Calm 10.00 Mostly Cloudy BKN180 63.7 61.5 64 55.4 93% 30.14 1020.9
12 06:55 Calm 10.00 Partly Cloudy SCT210 58.3 57.7 98% 30.13 1020.6
12 05:55 Calm 9.00 Fair CLR 56.1 55.6 98% 30.12 1020.2
12 04:55 Calm 9.00 Fair CLR 57 56.5 98% 30.12 1020.2
12 03:55 Calm 8.00 Fair CLR 58.5 57.9 98% 30.11 1019.8
12 02:55 Calm 10.00 Fair CLR 60.6 60.3 99% 30.1 1019.5
12 01:55 Calm 10.00 Fair CLR 63.7 61.5 75.4 62.8 93% 30.11 1019.8
12 00:55 W 5 10.00 Fair CLR 66 62.4 88% 30.11 1019.8
11 23:55 SW 3 10.00 Partly Cloudy SCT039 67.8 64 88% 30.1 1019.4
11 22:55 Calm 10.00 Fair CLR 65.5 64 95% 30.1 1019.5
11 21:55 NE 3 9.00 A Few Clouds FEW170 70.2 66.7 89% 30.1 1019.5
11 20:55 Calm 10.00 Mostly Cloudy BKN044 72.7 67.1 83% 30.09 1019.2
11 19:55 NW 7 10.00 Mostly Cloudy FEW075 BKN100 BKN190 74.7 63.3 81.7 74.7 68% 30.09 1019.2
11 18:55 NW 5 10.00 Mostly Cloudy SCT050 BKN190 78.6 63 59% 80 30.07 1018.5
11 17:55 Calm 10.00 Partly Cloudy SCT210 78.8 60.3 53% 80 30.07 1018.5
11 16:55 Calm 10.00 Partly Cloudy SCT220 81.1 60.1 49% 82 30.07 1018.5
11 15:55 Calm 10.00 A Few Clouds FEW230 80.8 61 51% 82 30.08 1018.8
11 14:55 Calm 10.00 Partly Cloudy FEW043 SCT075 SCT210 79.5 60.3 52% 81 30.08 1018.8
11 13:55 Calm 10.00 A Few Clouds FEW036 78.1 60.6 78.4 59.9 55% 80 30.09 1019.2
11 12:55 Calm 10.00 Fair CLR 78.1 63 60% 80 30.09 1019.1
11 11:55 Calm 10.00 Fair CLR 74.1 60.3 62% 30.09 1019.2
11 10:55 Calm 10.00 Fair CLR 70.3 63.1 78% 30.09 1019.3
11 09:55 Calm 10.00 A Few Clouds FEW004 65.1 62.1 90% 30.09 1019.4
11 08:55 Calm 8.00 Overcast OVC003 61.2 60.8 99% 30.08 1019.0
11 07:55 Calm 0.25 Fog VV003 60.3 59.9 60.3 56.3 99% 30.06 1018.3
11 06:55 Calm 4.00 Fog/Mist FEW000 57.4 57 99% 30.05 1018.0
Date Time (edt) Wind (mph) Vis. (mi.) Weather Sky Cond. Air Dwpt Max. Min. Relative Humidity Wind Chill (°F) Heat Index (°F) altimeter (in) sea level (mb) 1 hr 3 hr 6 hr
6 hour
Temperature (ºF) Pressure Precipitation (in)